DW9727 Weather Reports


time (UTC)temp
C
wind
direction
speed
KPH
gust
KPH
rain 1hr
cm
rain 24hr
cm
rain mn
cm
humidity
%
barometer
mb
20260901154710 28 42 4.8 11.3 0.00 0.03 0.03 71 1010.3
20260901153710 28 23 8.0 12.9 0.00 0.03 0.03 72 1010.4
20260901152711 28 47 4.8 11.3 0.00 0.03 0.03 72 1010.3
20260901151712 28 61 6.4 11.3 0.00 0.03 0.03 69 1010.3
20260901150710 28 11 4.8 9.7 0.00 0.03 0.03 70 1010.3
20260901145710 28 0 3.2 8.0 0.00 0.03 0.03 70 1010.5
20260901144710 27 57 0.0 4.8 0.00 0.03 0.03 71 1010.4
20260901143711 27 69 1.6 4.8 0.00 0.03 0.03 73 1010.6
20260901142711 26 115 1.6 4.8 0.00 0.03 0.03 75 1010.6
20260901141711 26 69 1.6 4.8 0.00 0.03 0.03 76 1010.9
20260901140710 26 117 3.2 4.8 0.00 0.03 0.03 80 1010.7
20260901134710 25 56 3.2 4.8 0.00 0.03 0.03 86 1011.1
20260901133712 25 108 1.6 3.2 0.00 0.03 0.03 86 1011.2
20260901132710 24 101 1.6 3.2 0.00 0.03 0.03 88 1011.2
20260901131711 23 101 0.0 0.0 0.00 0.03 0.03 90 1011.2
20260901130710 23 101 0.0 3.2 0.00 0.03 0.03 90 1011.0
20260901124711 23 69 0.0 0.0 0.00 0.03 0.03 90 1010.8
20260901123711 22 69 0.0 4.8 0.00 0.03 0.03 90 1010.6
20260901122711 22 88 1.6 4.8 0.00 0.03 0.03 90 1010.5
20260901121711 22 55 3.2 4.8 0.00 0.03 0.03 90 1010.3
20260901120710 22 55 0.0 4.8 0.00 0.03 0.03 90 1010.4
20260901115711 22 49 1.6 4.8 0.00 0.03 0.03 90 1010.3
20260901114711 22 48 0.0 4.8 0.00 0.03 0.03 90 1010.2
20260901113711 22 59 1.6 3.2 0.00 0.03 0.03 90 1010.2
20260901112711 23 76 0.0 4.8 0.00 0.03 0.03 90 1010.1
20260901111711 23 48 3.2 4.8 0.00 0.03 0.03 90 1009.9
20260901110710 23 66 0.0 4.8 0.00 0.03 0.03 90 1009.9
20260901105711 23 54 1.6 8.0 0.00 0.03 0.03 90 1009.9
20260901104710 23 59 3.2 4.8 0.00 0.03 0.03 89 1010.0
20260901102710 23 89 3.2 4.8 0.00 0.03 0.03 88 1009.9
20260901101711 23 68 1.6 3.2 0.00 0.03 0.03 87 1010.1
20260901100710 23 137 0.0 3.2 0.00 0.03 0.03 87 1010.2
20260901095711 23 137 0.0 3.2 0.00 0.03 0.03 86 1010.2
20260901094711 24 137 1.6 4.8 0.00 0.03 0.03 85 1010.2
20260901093710 24 108 0.0 3.2 0.00 0.03 0.03 85 1010.2
20260901091711 25 123 3.2 4.8 0.00 0.03 0.03 84 1010.4
20260901090710 25 61 0.0 0.0 0.00 0.03 0.03 84 1010.3
20260901085710 25 61 0.0 3.2 0.00 0.03 0.03 84 1010.5
20260901084711 25 34 1.6 3.2 0.03 0.03 0.03 83 1010.8
20260901083710 25 109 1.6 11.3 0.03 0.03 0.03 83 1010.4
20260901082711 25 127 8.0 11.3 0.03 0.03 0.03 84 1010.3
20260901081710 25 100 3.2 11.3 0.03 0.03 0.03 85 1010.4
20260901080710 25 142 4.8 11.3 0.03 0.03 0.03 84 1010.5
20260901075711 25 115 6.4 11.3 0.03 0.03 0.03 84 1010.7
20260901074711 25 108 3.2 4.8 0.00 0.00 0.00 83 1011.1
20260901072710 25 146 1.6 3.2 0.00 0.00 0.00 84 1011.2
20260901071711 25 93 0.0 0.0 0.00 0.00 0.00 84 1011.1
20260901070710 25 93 0.0 1.6 0.00 0.00 0.00 84 1010.9
20260901065711 25 94 1.6 4.8 0.00 0.00 0.00 84 1011.3
20260901064711 25 59 1.6 3.2 0.00 0.00 0.00 84 1011.3
20260901063710 25 114 1.6 4.8 0.00 0.00 0.00 83 1011.3
20260901062711 25 98 3.2 4.8 0.00 0.00 0.00 84 1011.3
20260901061710 25 108 1.6 4.8 0.00 0.00 0.00 84 1011.3
20260901060712 25 111 3.2 4.8 0.00 0.00 0.00 86 1011.5
20260901055710 25 120 0.0 0.0 0.00 0.00 0.00 86 1011.6
20260901054710 24 120 0.0 0.0 0.00 0.00 0.00 86 1011.4
20260901053710 24 120 0.0 3.2 0.00 0.00 0.00 86 1011.6
20260901050711 24 119 1.6 9.7 0.00 0.00 0.00 86 1011.5
20260901045710 24 9 1.6 4.8 0.00 0.00 0.00 85 1011.6
20260901044711 25 327 0.0 0.0 0.00 0.00 0.00 84 1011.6
20260901043711 25 327 0.0 0.0 0.00 0.00 0.00 84 1011.6
20260901041710 25 326 0.0 0.0 0.00 0.00 0.00 82 1011.5
20260901040710 25 105 0.0 0.0 0.00 0.00 0.00 82 1011.5
20260901034710 25 105 0.0 0.0 0.00 0.00 0.00 81 1011.4
20260901033711 25 105 0.0 0.0 0.00 0.00 0.00 80 1011.4
20260901032710 26 105 0.0 3.2 0.00 0.00 0.00 80 1011.2
20260901031710 26 105 1.6 1.6 0.00 0.00 0.00 80 1011.3
20260901025711 26 105 0.0 4.8 0.00 0.00 0.00 79 1011.1
20260901021710 27 57 1.6 3.2 0.00 0.00 0.00 73 1010.6
20260901015711 28 57 0.0 1.6 0.00 0.00 0.00 69 1010.4
20260901014710 28 57 0.0 3.2 0.00 0.00 0.00 68 1010.2
20260901013711 28 171 0.0 1.6 0.00 0.00 0.00 67 1010.3
20260901012710 29 171 0.0 0.0 0.00 0.00 0.00 66 1010.2
20260901011710 29 171 0.0 3.2 0.00 0.00 0.00 65 1010.1
20260901010710 30 171 1.6 3.2 0.00 0.00 0.00 63 1010.3
20260901005710 30 171 1.6 4.8 0.00 0.00 0.00 61 1010.2
20260901003711 31 170 0.0 0.0 0.00 0.00 0.00 59 1010.2
20260901001711 31 170 1.6 3.2 0.00 0.00 0.00 57 1010.4
20260901000711 31 197 1.6 4.8 0.00 0.00 0.00 59 1010.3
20260831235710 31 218 1.6 3.2 0.00 0.00 0.00 58 1010.4
20260831234710 31 247 3.2 4.8 0.00 0.00 0.00 57 1010.5
20260831233710 31 232 1.6 4.8 0.00 0.00 0.00 56 1010.5
20260831232711 32 196 1.6 4.8 0.00 0.00 0.00 55 1010.5
20260831231711 32 219 1.6 4.8 0.00 0.00 0.00 56 1010.5
20260831225711 32 261 4.8 8.0 0.00 0.00 0.00 56 1010.6
20260831224710 32 229 4.8 8.0 0.00 0.00 0.00 55 1010.7
20260831223711 32 201 4.8 8.0 0.00 0.00 0.00 55 1010.8
20260831222710 32 185 3.2 8.0 0.00 0.00 0.00 55 1010.7
20260831220711 32 201 3.2 9.7 0.00 0.00 0.00 55 1010.9
20260831215710 32 248 3.2 4.8 0.00 0.00 0.00 55 1010.7
20260831214711 32 144 3.2 12.9 0.00 0.00 0.00 58 1010.9
20260831213711 32 136 3.2 11.3 0.00 0.00 0.00 57 1011.0
20260831212710 32 196 8.0 12.9 0.00 0.00 0.00 56 1011.0
20260831211711 32 154 4.8 9.7 0.00 0.00 0.00 56 1010.9
20260831210710 32 290 3.2 9.7 0.00 0.00 0.00 56 1010.9
20260831205711 31 200 0.0 11.3 0.00 0.00 0.00 57 1011.0
20260831204711 31 156 3.2 11.3 0.00 0.00 0.00 59 1011.2
20260831203710 31 204 3.2 12.9 0.00 0.00 0.00 60 1011.3
20260831202711 31 196 4.8 12.9 0.00 0.00 0.00 63 1011.3
20260831201710 31 49 3.2 12.9 0.00 0.00 0.00 64 1011.3
20260831200711 31 160 4.8 12.9 0.00 0.00 0.00 65 1011.4
20260831195710 31 116 3.2 8.0 0.00 0.00 0.00 64 1011.3
20260831194711 30 155 1.6 4.8 0.00 0.00 0.00 64 1011.3
20260831193711 30 260 1.6 9.7 0.00 0.00 0.00 67 1011.5
20260831192711 30 144 3.2 9.7 0.00 0.00 0.00 65 1011.4
20260831191710 29 167 4.8 8.0 0.00 0.00 0.00 68 1011.5
20260831190710 29 268 4.8 11.3 0.00 0.00 0.00 69 1011.6
20260831185710 29 300 4.8 9.7 0.00 0.00 0.00 69 1011.8
20260831184711 29 11 4.8 11.3 0.00 0.00 0.00 72 1011.8
20260831183710 28 222 1.6 12.9 0.00 0.00 0.00 70 1011.6
20260831181711 28 52 3.2 8.0 0.00 0.00 0.00 71 1011.8
20260831180710 28 323 0.0 9.7 0.00 0.00 0.00 71 1011.8
20260831175711 28 287 3.2 12.9 0.00 0.00 0.00 74 1011.9
20260831174711 27 65 4.8 12.9 0.00 0.00 0.00 72 1011.7
20260831173711 27 30 4.8 8.0 0.00 0.00 0.00 74 1011.8
20260831172710 27 310 0.0 11.3 0.00 0.00 0.00 73 1011.7
20260831171710 27 305 4.8 4.8 0.00 0.00 0.00 73 1011.8
20260831170711 26 9 6.4 11.3 0.00 0.00 0.00 76 1011.7
20260831165710 26 329 4.8 14.5 0.00 0.00 0.00 75 1011.4
20260831164710 26 288 4.8 14.5 0.00 0.00 0.00 77 1011.5
20260831163711 26 300 4.8 16.1 0.00 0.00 0.00 77 1011.5
20260831162711 25 5 4.8 16.1 0.00 0.00 0.00 78 1011.6
20260831161710 25 315 8.0 16.1 0.00 0.00 0.00 77 1011.4
20260831160711 25 311 14.5 20.9 0.00 0.00 0.00 78 1011.6
20260831155710 24 324 14.5 19.3 0.00 0.00 0.00 79 1011.3